Flag for U.S.A. Weather past 2 weeks in Livonia, Michigan, U.S.A.

Now
72 °F

Clear.


Feels Like: 76 °F
Forecast: 66 / 85 °F
Wind: 7 mph from Southwest

Location: Detroit Metropolitan Wayne County Airport

Current Time: Jul 31, 2015 at 12:11:01 AM

Latest Report: Jul 30, 2015 at 11:53 PM


Visibility: 10 mi

Pressure: 29.96 "Hg

Humidity: 61%

Dew point: 58 °F

Location of LivoniaLocation

Historic Weather in Livonia — Graph

°F

Livonia temperature yesterday

Maximum temperature yesterday: 86 °F (at 3:53 PM)
Minimum temperature yesterday: 65 °F (at 4:53 AM)
Average temperature yesterday: 76 °F

Past Weeks' High & Low Weather Summary

 TemperatureHumidityPressure
High90 °F (Jul 19, 1:53 PM)93% (Jul 26, 3:53 AM)30.10 "Hg (Jul 26, 3:53 AM)
Low55 °F (Jul 16, 4:53 AM)33% (Jul 16, 4:53 PM)29.69 "Hg (Jul 21, 4:53 AM)
Average76 °F64%29.92 "Hg
* Reported Jul 15 10:53 PM — Jul 30 10:53 PM, Livonia, Weather by CustomWeather, © 2015

Note: Actual official high and low records may vary slightly from our data, if they occured in-between our weather recording intervals... More about our weather records

Advertising

Livonia weather history for previous 24 hours

 ConditionsComfort  
Time TempWeatherWind HumidityBarometerVisibility
10:53 PM
Thu, Jul 30
74 °FClear.7 mph57%29.96 "Hg10 mi
9:53 PM76 °FSunny.8 mph54%29.95 "Hg10 mi
8:53 PM79 °FPassing clouds.9 mph45%29.93 "Hg10 mi
7:53 PM82 °FPassing clouds.12 mph41%29.93 "Hg10 mi
6:53 PM84 °FPassing clouds.16 mph38%29.92 "Hg10 mi
4:53 PM86 °FPassing clouds.18 mph36%29.93 "Hg10 mi
3:53 PM86 °FPassing clouds.14 mph35%29.93 "Hg10 mi
2:53 PM85 °FPassing clouds.15 mph39%29.94 "Hg10 mi
1:53 PM84 °FPassing clouds.14 mph38%29.95 "Hg10 mi
12:53 PM83 °FScattered clouds.17 mph40%29.96 "Hg10 mi
11:53 AM83 °FPassing clouds.14 mph41%29.96 "Hg10 mi
10:53 AM80 °FSunny.10 mph49%29.96 "Hg10 mi
9:53 AM77 °FSunny.13 mph56%29.96 "Hg10 mi
8:53 AM73 °FPassing clouds.10 mph64%29.96 "Hg10 mi
7:53 AM70 °FPassing clouds.6 mph68%29.96 "Hg10 mi
6:53 AM66 °FPassing clouds.6 mph75%29.95 "Hg10 mi
5:53 AM65 °FPartly cloudy.5 mph76%29.93 "Hg10 mi
4:53 AM65 °FPartly cloudy.5 mph78%29.92 "Hg10 mi
3:53 AM66 °FPartly cloudy.5 mph75%29.92 "Hg10 mi
2:53 AM67 °FPassing clouds.6 mph73%29.91 "Hg10 mi
1:53 AM68 °FPassing clouds.7 mph70%29.92 "Hg10 mi
12:53 AM71 °FPassing clouds.5 mph63%29.92 "Hg10 mi
Weather by CustomWeather, © 2015

See weather overviewHow to use our weather pages